CW9688 Weather Reports


time (UTC)temp
C
wind
direction
speed
KPH
gust
KPH
rain 1hr
cm
rain 24hr
cm
rain mn
cm
humidity
%
barometer
mb
20260903133804 16 168 3.2 4.8 0.00 0.33 0.00 71 1011.2
20260903132306 15 140 3.2 9.7 0.00 0.33 0.00 74 1011.2
20260903131304 15 173 3.2 8.0 0.00 0.33 0.00 74 1011.2
20260903130304 15 201 0.0 1.6 0.00 0.33 0.00 74 1011.2
20260903124804 15 211 3.2 8.0 0.00 0.33 0.00 76 1011.2
20260903122305 13 196 3.2 4.8 0.00 0.33 0.00 84 1011.2
20260903121804 13 214 3.2 4.8 0.00 0.33 0.00 84 1011.2
20260903120804 13 176 3.2 3.2 0.00 0.33 0.00 84 1011.2
20260903114805 13 211 0.0 3.2 0.00 0.33 0.00 84 1011.2
20260903113804 15 165 1.6 4.8 0.00 0.33 0.00 81 1011.2
20260903113304 14 182 3.2 4.8 0.00 0.33 0.00 83 1011.2
20260903111804 14 211 3.2 4.8 0.00 0.33 0.00 86 1011.2
20260903111304 13 213 3.2 4.8 0.00 0.33 0.00 87 1011.2
20260903110304 13 193 0.0 0.0 0.00 0.33 0.00 88 1011.2
20260903104305 13 193 0.0 1.6 0.00 0.33 0.00 87 1011.2
20260903103304 14 193 3.2 4.8 0.00 0.33 0.00 87 1011.2
20260903102306 14 193 0.0 1.6 0.00 0.33 0.00 87 1011.2
20260903100804 15 176 0.0 3.2 0.00 0.33 0.00 86 1011.2
20260903100304 15 176 4.8 4.8 0.00 0.33 0.00 88 1011.2
20260903095804 14 176 0.0 0.0 0.00 0.33 0.00 87 1011.2
20260903095306 14 176 0.0 0.0 0.00 0.33 0.00 88 1011.2
20260903094805 14 176 0.0 0.0 0.00 0.33 0.00 86 1011.2
20260903094304 15 176 0.0 0.0 0.00 0.33 0.00 86 1011.2
20260903093305 15 176 0.0 0.0 0.00 0.33 0.00 86 1011.2
20260903092306 15 176 0.0 1.6 0.00 0.33 0.00 84 1011.2
20260903091304 15 180 1.6 3.2 0.00 0.33 0.00 86 1011.2
20260903090304 16 180 0.0 1.6 0.00 0.33 0.00 84 1011.2
20260903085804 16 180 0.0 3.2 0.00 0.33 0.00 83 1011.2
20260903084804 16 178 3.2 8.0 0.00 0.33 0.00 83 1011.2
20260903084304 16 182 1.6 4.8 0.00 0.33 0.00 83 1011.2
20260903082804 16 193 1.6 3.2 0.00 0.33 0.00 80 1011.2
20260903082306 16 186 1.6 3.2 0.00 0.33 0.00 79 1011.2
20260903081304 16 179 3.2 8.0 0.00 0.33 0.00 79 1011.2
20260903080804 16 173 3.2 4.8 0.00 0.33 0.00 79 1011.2
20260903080304 16 178 3.2 4.8 0.00 0.33 0.00 80 1011.2
20260903075804 16 156 1.6 3.2 0.00 0.33 0.00 80 1011.2
20260903074804 16 146 4.8 9.7 0.00 0.33 0.00 84 1011.2
20260903073805 16 147 0.0 0.0 0.00 0.33 0.00 86 1011.2
20260903073304 16 147 1.6 3.2 0.00 0.33 0.00 85 1011.2
20260903072804 16 147 0.0 1.6 0.00 0.33 0.00 85 1011.2
20260903070804 16 147 0.0 0.0 0.00 0.33 0.00 87 1011.2
20260903065306 16 147 3.2 3.2 0.00 0.33 0.00 86 1011.2
20260903064805 16 147 0.0 0.0 0.00 0.33 0.00 86 1011.2
20260903064304 16 147 0.0 0.0 0.00 0.33 0.00 86 1011.2
20260903062804 16 130 1.6 3.2 0.00 0.33 0.00 86 1011.2
20260903062306 16 130 1.6 3.2 0.00 0.33 0.00 86 1011.2
20260903061304 16 56 1.6 4.8 0.00 0.33 0.00 87 1011.2
20260903055306 16 156 1.6 3.2 0.00 0.33 0.33 86 1011.2
20260903054804 16 156 0.0 1.6 0.00 0.33 0.33 86 1011.2
20260903054304 17 163 0.0 4.8 0.00 0.33 0.33 84 1011.2
20260903053804 17 143 1.6 4.8 0.00 0.33 0.33 83 1011.2
20260903051304 17 161 4.8 8.0 0.00 0.33 0.33 83 1011.2
20260903050804 17 113 4.8 8.0 0.00 0.33 0.33 83 1011.2
20260903044804 16 213 3.2 4.8 0.00 0.33 0.33 87 1011.2
20260903043804 16 112 3.2 4.8 0.00 0.33 0.33 88 1011.2
20260903042804 16 122 0.0 0.0 0.00 0.33 0.33 87 1011.2
20260903040804 16 30 0.0 0.0 0.23 0.33 0.33 87 1011.2
20260903034804 17 81 4.8 11.3 0.33 0.33 0.33 81 1011.2
20260903032803 16 16 4.8 9.7 0.33 0.33 0.33 85 1013.7
20260903032306 17 56 3.2 8.0 0.33 0.33 0.33 83 1013.7
20260903031804 17 169 8.0 11.3 0.33 0.33 0.33 79 1013.7
20260903031304 18 32 8.0 12.9 0.30 0.30 0.30 75 1013.7
20260903030804 20 185 9.7 16.1 0.10 0.10 0.10 65 1013.7
20260903030304 22 179 9.7 14.5 0.03 0.03 0.03 57 1013.7
20260903024804 22 351 8.0 12.9 0.00 0.00 0.00 46 1013.7
20260903022804 22 350 6.4 19.3 0.00 0.00 0.00 45 1013.7
20260903021804 22 18 11.3 19.3 0.00 0.00 0.00 46 1013.7
20260903015803 23 20 14.5 27.4 0.00 0.00 0.00 43 1013.7
20260903014304 23 8 11.3 20.9 0.00 0.00 0.00 39 1013.7
20260903013804 24 353 11.3 20.9 0.00 0.00 0.00 39 1013.7
20260903012306 24 336 11.3 19.3 0.00 0.00 0.00 37 1013.7
20260903011804 24 346 9.7 19.3 0.00 0.00 0.00 37 1013.7
20260903010805 25 353 9.7 19.3 0.00 0.00 0.00 37 1013.7
20260903005804 25 358 14.5 29.0 0.00 0.00 0.00 36 1013.7
20260903004305 27 331 11.3 22.5 0.00 0.00 0.00 31 1013.7
20260903003804 27 315 14.5 25.7 0.00 0.00 0.00 30 1013.7
20260903002804 27 337 9.7 24.1 0.00 0.00 0.00 29 1013.7
20260903001304 28 314 16.1 32.2 0.00 0.00 0.00 28 1013.7
20260903000303 29 350 11.3 19.3 0.00 0.00 0.00 28 1013.7
20260902235804 29 333 9.7 19.3 0.00 0.00 0.00 29 1013.7
20260902234803 28 345 9.7 19.3 0.00 0.00 0.00 31 1013.7
20260902233304 29 5 6.4 16.1 0.00 0.00 0.00 28 1013.7
20260902232306 29 60 4.8 9.7 0.00 0.00 0.00 28 1013.7
20260902231804 29 56 3.2 11.3 0.00 0.00 0.00 28 1013.7
20260902231304 29 51 4.8 9.7 0.00 0.00 0.00 28 1013.7
20260902230804 29 60 3.2 11.3 0.00 0.00 0.00 27 1013.7
20260902230304 30 95 3.2 11.3 0.00 0.00 0.00 27 1013.7
20260902225804 30 105 6.4 14.5 0.00 0.00 0.00 27 1013.7
20260902224304 30 130 9.7 20.9 0.00 0.00 0.00 26 1013.7
20260902223804 30 96 16.1 22.5 0.00 0.00 0.00 25 1013.7
20260902223304 31 117 14.5 24.1 0.00 0.00 0.00 24 1013.7
20260902222804 31 122 9.7 32.2 0.00 0.00 0.00 25 1013.7
20260902220804 31 103 8.0 22.5 0.00 0.00 0.00 24 1013.7
20260902215804 31 68 11.3 20.9 0.00 0.00 0.00 24 1013.7
20260902213804 32 113 12.9 20.9 0.00 0.00 0.00 23 1013.7
20260902213304 32 154 9.7 16.1 0.00 0.00 0.00 21 1013.7
20260902212804 31 95 11.3 24.1 0.00 0.00 0.00 26 1013.7
20260902212306 31 85 8.0 16.1 0.00 0.00 0.00 24 1013.7
20260902211804 31 89 11.3 22.5 0.00 0.00 0.00 25 1013.7
20260902210304 32 74 14.5 22.5 0.00 0.00 0.00 23 1013.7
20260902205306 31 102 9.7 20.9 0.00 0.00 0.00 24 1013.7
20260902204804 32 113 4.8 19.3 0.00 0.00 0.00 23 1013.7
20260902204304 31 144 12.9 20.9 0.00 0.00 0.00 24 1013.7
20260902203804 31 130 12.9 25.7 0.00 0.00 0.00 22 1013.7
20260902203304 31 111 9.7 22.5 0.00 0.00 0.00 25 1013.7
20260902202306 31 119 8.0 19.3 0.00 0.00 0.00 22 1013.7
20260902201804 30 72 8.0 24.1 0.00 0.00 0.00 23 1013.7
20260902200804 31 104 19.3 27.4 0.00 0.00 0.00 24 1013.7
20260902200304 30 48 14.5 20.9 0.00 0.00 0.00 24 1013.7
20260902194803 31 104 9.7 19.3 0.00 0.00 0.00 23 1013.7
20260902193803 30 103 8.0 14.5 0.00 0.00 0.00 25 1013.7
20260902192306 30 96 9.7 19.3 0.00 0.00 0.00 24 1013.7
20260902191804 30 84 9.7 20.9 0.00 0.00 0.00 23 1013.7
20260902191305 31 107 9.7 19.3 0.00 0.00 0.00 24 1013.7
20260902190803 30 23 4.8 12.9 0.00 0.00 0.00 24 1013.7
20260902185306 30 141 4.8 19.3 0.00 0.00 0.00 26 1013.7
20260902184804 30 167 3.2 14.5 0.00 0.00 0.00 24 1013.7
20260902183804 29 85 4.8 12.9 0.00 0.00 0.00 25 1013.7
20260902182804 30 113 9.7 19.3 0.00 0.00 0.00 25 1013.7
20260902181804 30 85 6.4 20.9 0.00 0.00 0.00 25 1013.7
20260902181304 29 96 3.2 11.3 0.00 0.00 0.00 26 1013.7
20260902180804 29 121 4.8 12.9 0.00 0.00 0.00 27 1013.7
20260902180304 29 70 4.8 12.9 0.00 0.00 0.00 26 1013.7
20260902175803 29 100 6.4 14.5 0.00 0.00 0.00 27 1013.7
20260902174804 28 126 9.7 14.5 0.00 0.00 0.00 26 1013.7
20260902173803 28 136 4.8 12.9 0.00 0.00 0.00 26 1013.7
20260902171804 27 68 11.3 19.3 0.00 0.00 0.00 29 1013.7
20260902171304 27 98 8.0 19.3 0.00 0.00 0.00 31 1013.7
20260902165803 27 175 8.0 11.3 0.00 0.00 0.00 30 1013.7
20260902164304 27 97 8.0 12.9 0.00 0.00 0.00 31 1013.3
20260902163804 27 146 8.0 19.3 0.00 0.00 0.00 32 1013.3
20260902163303 27 167 9.7 16.1 0.00 0.00 0.00 34 1013.3
20260902162307 26 148 6.4 12.9 0.00 0.00 0.00 34 1013.3
20260902161805 26 138 8.0 14.5 0.00 0.00 0.00 36 1013.3
20260902160804 25 171 11.3 16.1 0.00 0.00 0.00 36 1013.3
20260902154804 25 176 8.0 16.1 0.00 0.00 0.00 38 1013.3
20260902153804 24 123 8.0 14.5 0.00 0.00 0.00 40 1013.3
20260902153304 23 163 8.0 11.3 0.00 0.00 0.00 42 1013.3
20260902151303 22 171 8.0 12.9 0.00 0.00 0.00 44 1013.3
20260902145306 21 162 4.8 11.3 0.00 0.00 0.00 49 1013.3
20260902144804 21 156 4.8 11.3 0.00 0.00 0.00 49 1013.3
20260902140804 18 183 4.8 11.3 0.00 0.00 0.00 57 1013.3
20260902140304 18 175 8.0 11.3 0.00 0.00 0.00 58 1013.3
20260902135805 18 175 4.8 9.7 0.00 0.00 0.00 59 1013.3
20260902134805 17 171 4.8 11.3 0.00 0.00 0.00 61 1013.3